SP7WOJ-15 Weather Reports


time (UTC)temp
F
wind
direction
speed
knots
gust
knots
rain 1hr
in
rain 24hr
in
rain mn
in
humidity
%
barometer
mb
20260905223013 55 270 3.5 3.5 0.01 0.01 0.01 83
20260905222013 56 303 3.5 4.3 0.01 0.01 0.01 83
20260905215947 59 297 5.2 5.2 0.00 0.03 0.03 70
20260905214935 61 276 4.3 4.3 0.00 0.03 0.03 62
20260905213934 63 294 7.0 7.8 0.00 0.03 0.03 58
20260905211857 59 288 0.0 0.0 0.00 0.03 0.03 69
20260905210844 59 270 0.0 0.0 0.00 0.03 0.03 68
20260905205831 59 286 0.0 0.0 0.00 0.03 0.03 69
20260905203805 59 306 1.7 1.7 0.00 0.03 0.03 67
20260905202805 59 282 0.9 0.9 0.00 0.03 0.03 67
20260905201805 60 228 0.0 0.0 0.00 0.03 0.03 66
20260905200803 61 306 0.0 0.0 0.00 0.03 0.03 62
20260905194747 62 306 3.5 3.5 0.00 0.03 0.03 58
20260905193746 62 300 3.5 4.3 0.00 0.03 0.03 57
20260905192746 62 314 2.6 2.6 0.00 0.03 0.03 59
20260905190730 63 294 3.5 3.5 0.00 0.03 0.03 57
20260905185730 62 276 2.6 2.6 0.00 0.03 0.03 58
20260905184717 60 330 1.7 1.7 0.00 0.03 0.03 62
20260905182650 63 281 0.9 0.9 0.00 0.03 0.03 56
20260905181638 63 312 2.6 2.6 0.00 0.03 0.03 55
20260905180637 64 282 2.6 2.6 0.00 0.03 0.03 55
20260905174559 64 306 1.7 1.7 0.00 0.03 0.03 54
20260905173546 65 294 1.7 1.7 0.00 0.03 0.03 53
20260905172546 65 319 1.7 1.7 0.00 0.03 0.03 53
20260905170519 65 296 1.7 1.7 0.00 0.03 0.03 52
20260905165519 66 269 1.7 1.7 0.00 0.03 0.03 50
20260905164517 67 306 1.7 1.7 0.00 0.03 0.03 49
20260905162452 68 286 5.2 5.2 0.00 0.03 0.03 46
20260905161450 68 290 3.5 3.5 0.00 0.03 0.03 47
20260905160446 68 308 4.3 4.3 0.00 0.03 0.03 46
20260905154421 68 270 3.5 3.5 0.00 0.03 0.03 45
20260905153420 68 302 5.2 7.0 0.00 0.03 0.03 44
20260905152409 68 297 3.5 4.3 0.00 0.03 0.03 44
20260905150330 70 274 5.2 5.2 0.00 0.03 0.03 43
20260905145318 70 312 5.2 7.0 0.00 0.03 0.03 43
20260905144318 70 307 7.8 8.7 0.00 0.03 0.03 43
20260905142251 71 278 5.2 7.0 0.00 0.03 0.03 44
20260905141239 71 269 7.0 8.7 0.00 0.03 0.03 45
20260905140238 71 282 5.2 5.2 0.00 0.03 0.03 45
20260905134220 71 236 1.7 1.7 0.00 0.03 0.03 44
20260905133207 71 299 7.0 8.7 0.00 0.03 0.03 45
20260905132206 69 292 5.2 5.2 0.00 0.03 0.03 48
20260905130128 70 318 6.1 7.0 0.00 0.03 0.03 44
20260905125118 70 296 8.7 8.7 0.00 0.03 0.03 44
20260905124107 70 265 6.1 7.0 0.00 0.03 0.03 45
20260905122032 69 278 3.5 3.5 0.00 0.03 0.03 50
20260905121022 67 288 4.3 5.2 0.00 0.03 0.03 54
20260905120010 66 267 3.5 3.5 0.00 0.03 0.03 57
20260905113934 67 232 4.3 5.2 0.00 0.03 0.03 55
20260905112922 67 300 5.2 5.2 0.00 0.03 0.03 56
20260905111910 66 10 5.2 5.2 0.00 0.03 0.03 59
20260905105833 66 280 6.1 7.8 0.00 0.03 0.03 59
20260905104822 66 308 2.6 3.5 0.00 0.03 0.03 63
20260905103822 66 319 3.5 3.5 0.00 0.03 0.03 62
20260905101750 65 306 6.1 7.0 0.00 0.03 0.03 64
20260905100740 64 295 4.3 5.2 0.00 0.03 0.03 65
20260905095729 64 319 4.3 4.3 0.00 0.03 0.03 67
20260905093656 64 276 6.1 7.8 0.00 0.03 0.03 67
20260905092644 64 286 7.0 7.8 0.00 0.03 0.03 68
20260905091635 64 297 3.5 3.5 0.00 0.03 0.03 71
20260905085600 64 282 8.7 9.6 0.00 0.03 0.03 73
20260905084550 63 312 1.7 1.7 0.00 0.03 0.03 76
20260905082517 62 294 4.3 4.3 0.00 0.03 0.03 76
20260905081508 62 300 4.3 4.3 0.00 0.03 0.03 77
20260905080456 62 300 1.7 1.7 0.00 0.03 0.03 77
20260905074407 62 256 0.9 0.9 0.00 0.03 0.03 78
20260905073354 63 264 7.8 8.7 0.00 0.03 0.03 75
20260905072342 63 294 4.3 5.2 0.00 0.03 0.03 76
20260905070311 62 314 1.7 1.7 0.00 0.03 0.03 77
20260905065259 62 291 3.5 3.5 0.00 0.03 0.03 79
20260905064248 62 302 1.7 1.7 0.00 0.03 0.03 80
20260905062220 62 290 2.6 3.5 0.00 0.03 0.03 82
20260905061211 61 324 7.8 7.8 0.00 0.03 0.03 81
20260905060201 61 280 3.5 3.5 0.00 0.03 0.03 83
20260905054124 61 256 4.3 4.3 0.00 0.03 0.03 81
20260905053113 61 302 6.1 7.0 0.00 0.03 0.03 82
20260905052101 61 285 7.0 8.7 0.00 0.03 0.03 82
20260905050034 62 288 5.2 5.2 0.00 0.03 0.03 80
20260905045024 62 300 3.5 4.3 0.00 0.03 0.03 77
20260905044013 62 327 3.5 3.5 0.00 0.03 0.03 78
20260905041940 62 282 4.3 4.3 0.00 0.03 0.03 77
20260905040937 62 330 3.5 4.3 0.00 0.03 0.03 77
20260905035928 62 312 3.5 3.5 0.00 0.03 0.03 77
20260905033855 60 312 3.5 3.5 0.01 0.03 0.03 81
20260905032831 60 238 2.6 2.6 0.01 0.03 0.03 85
20260905031823 60 320 3.5 3.5 0.02 0.03 0.03 85
20260905025748 59 224 2.6 3.5 0.03 0.03 0.03 87
20260905024738 59 252 0.9 0.9 0.03 0.03 0.03 89
20260905023726 59 60 0.9 0.9 0.02 0.02 0.02 89
20260905021639 60 288 0.9 0.9 0.02 0.02 0.02 87
20260905020628 62 294 3.5 3.5 0.01 0.01 0.01 79
20260905015619 63 204 4.3 4.3 0.01 0.01 0.01 77
20260905013546 66 330 5.2 5.2 0.00 0.00 0.00 66
20260905012535 66 286 5.2 5.2 0.00 0.00 0.00 64
20260905011512 67 276 6.1 7.8 0.00 0.00 0.00 63
20260905005438 68 264 7.8 7.8 0.00 0.00 0.00 64
20260905004428 68 290 4.3 5.2 0.00 0.00 0.00 65
20260905003417 68 282 4.3 5.2 0.00 0.00 0.00 65
20260905001341 69 288 5.2 7.0 0.00 0.00 0.00 66
20260905000329 69 17 5.2 6.1 0.00 0.00 0.00 66
20260904235322 70 262 4.3 4.3 0.00 0.00 0.00 66
20260904233247 71 312 3.5 3.5 0.00 0.00 0.00 66
20260904232237 71 275 1.7 1.7 0.00 0.00 0.00 65
20260904231226 71 287 2.6 2.6 0.00 0.00 0.00 64
20260904225150 72 290 3.5 3.5 0.00 0.00 0.00 61
20260904224140 70 288 5.2 5.2 0.00 0.00 0.00 64